Simultaneous Nadir Overpasses (SNOs) Predictions

Prediction of SNOs between GOES-16 and AQUA Satellite Orbit:

Table of predicted SNOs for the next 14.0 days since TLE Epoch: 5/17/2019
Index Date Time (GOES-16) GOES-16 Lat,Lon AQUA Lat,Lon Distance(km) Time Diff (sec)
1 05/18/2019 06:38:28 0.00, -75.18 0.07, -75.34 19.66 80
2 05/20/2019 06:23:36 -0.00, -75.17 -0.59, -72.39 316.18 80
3 05/20/2019 18:45:01 0.00, -75.17 -0.48, -77.59 274.50 80
4 05/22/2019 18:35:28 0.01, -75.17 0.11, -74.62 61.68 80
5 05/24/2019 18:23:16 0.01, -75.17 0.77, -71.67 398.54 80
6 05/25/2019 06:44:30 -0.02, -75.18 0.36, -76.82 187.17 80
7 05/27/2019 06:29:38 -0.02, -75.19 -0.30, -73.86 150.65 80
8 05/27/2019 18:51:02 0.02, -75.19 -0.83, -79.05 439.70 80
9 05/29/2019 06:17:25 -0.02, -75.21 -0.91, -70.90 489.11 80
10 05/29/2019 18:38:50 0.02, -75.21 -0.15, -76.10 101.06 80




NCC Satellite Simultaneous Nadir Overpasses (SNOs) Prediction Service
